GalileoSat-34

operational
NORAD ID: 67161 Int'l Des: 2025-302 Owner: EUSPA Country: I-EU Constellation: Galileo
MEOCIRCULAR

GalileoSat-34について

説明を読み込み中...

リアルタイム位置

3D地球を読み込み中...

次回通過

高度履歴

Altitude vs Time

uPlot chart will show altitude changes over time

軌道要素

1 67161U 25302B 25353.30200568 -.00000005 00000-0 00000+0 0 9990
2 67161 54.2272 107.1916 0004587 255.0301 104.8802 1.72972192 58
Epoch: Dec 19, 2025 • Age: 16 hours

現在のステータス

高度 22952.2 km
速度 3.69 km/s
衛星直下点 38.45°N, 67.44°E
打ち上げ日 Dec 17, 2025
運用期間 2 days
タイプ navigation

技術仕様

分類 Payload
質量 733.00 kg
乾燥質量 660.00 kg
総質量 733.00 kg
長さ 2.70 m
直径 1.60 m
スパン 14.50 m
形状 Box+2 pan
製造者 OHB
バスタイプ Galileo
フェーズステータス In Orbit
所有者/国 EUSPA/I-EU

大規模コンステレーション

Loading constellations...